Year,Month,Day,Hour,Minute,Value (Times are PST for temperature in C)
2016,12,11,00,00,4.60
2016,12,11,00,01,4.60
2016,12,11,00,02,4.60
2016,12,11,00,03,4.60
2016,12,11,00,04,4.70
2016,12,11,00,05,4.70
2016,12,11,00,06,4.70
2016,12,11,00,07,4.70
2016,12,11,00,08,4.70
2016,12,11,00,09,4.60
2016,12,11,00,10,4.70
2016,12,11,00,11,4.70
2016,12,11,00,12,4.70
2016,12,11,00,13,4.70
2016,12,11,00,14,4.70
2016,12,11,00,15,4.70
2016,12,11,00,16,4.80
2016,12,11,00,17,4.80
2016,12,11,00,18,4.70
2016,12,11,00,19,4.70
2016,12,11,00,20,4.70
2016,12,11,00,21,4.70
2016,12,11,00,22,4.70
2016,12,11,00,23,4.70
2016,12,11,00,24,4.70
2016,12,11,00,25,4.70
2016,12,11,00,26,4.70
2016,12,11,00,27,4.70
2016,12,11,00,28,4.70
2016,12,11,00,29,4.70
2016,12,11,00,30,4.70
2016,12,11,00,31,4.70
2016,12,11,00,32,4.70
2016,12,11,00,33,4.70
2016,12,11,00,34,4.70
2016,12,11,00,35,4.70
2016,12,11,00,36,4.70
2016,12,11,00,37,4.70
2016,12,11,00,38,4.70
2016,12,11,00,39,4.70
2016,12,11,00,40,4.70
2016,12,11,00,41,4.70
2016,12,11,00,42,4.70
2016,12,11,00,43,4.70
2016,12,11,00,44,4.70
2016,12,11,00,45,4.70
2016,12,11,00,46,4.70
2016,12,11,00,47,4.70
2016,12,11,00,48,4.70
2016,12,11,00,49,4.70
2016,12,11,00,50,4.70
2016,12,11,00,51,4.70
2016,12,11,00,52,4.70
2016,12,11,00,53,4.60
2016,12,11,00,54,4.60
2016,12,11,00,55,4.60
2016,12,11,00,56,4.60
2016,12,11,00,57,4.60
2016,12,11,00,58,4.60
2016,12,11,00,59,4.60
2016,12,11,01,00,4.60
2016,12,11,01,01,4.60
2016,12,11,01,02,4.60
2016,12,11,01,03,4.60
2016,12,11,01,04,4.60
2016,12,11,01,05,4.60
2016,12,11,01,06,4.60
2016,12,11,01,07,4.60
2016,12,11,01,08,4.70
2016,12,11,01,09,4.70
2016,12,11,01,10,4.70
2016,12,11,01,11,4.70
2016,12,11,01,12,4.70
2016,12,11,01,13,4.70
2016,12,11,01,14,4.70
2016,12,11,01,15,4.70
2016,12,11,01,16,4.70
2016,12,11,01,17,4.70
2016,12,11,01,18,4.70
2016,12,11,01,19,4.70
2016,12,11,01,20,4.70
2016,12,11,01,21,4.60
2016,12,11,01,22,4.60
2016,12,11,01,23,4.60
2016,12,11,01,24,4.60
2016,12,11,01,25,4.60
2016,12,11,01,26,4.70
2016,12,11,01,27,4.70
2016,12,11,01,28,4.70
2016,12,11,01,29,4.70
2016,12,11,01,30,4.70
2016,12,11,01,31,4.80
2016,12,11,01,32,4.80
2016,12,11,01,33,4.80
2016,12,11,01,34,4.80
2016,12,11,01,35,4.80
2016,12,11,01,36,4.80
2016,12,11,01,37,4.80
2016,12,11,01,38,4.80
2016,12,11,01,39,4.90
2016,12,11,01,40,5.00
2016,12,11,01,41,5.00
2016,12,11,01,42,5.10
2016,12,11,01,43,5.10
2016,12,11,01,44,5.10
2016,12,11,01,45,5.10
2016,12,11,01,46,5.10
2016,12,11,01,47,5.10
2016,12,11,01,48,5.20
2016,12,11,01,49,5.20
2016,12,11,01,50,5.30
2016,12,11,01,51,5.30
2016,12,11,01,52,5.30
2016,12,11,01,53,5.30
2016,12,11,01,54,5.30
2016,12,11,01,55,5.30
2016,12,11,01,56,5.30
2016,12,11,01,57,5.30
2016,12,11,01,58,5.30
2016,12,11,01,59,5.30
2016,12,11,02,00,5.30
2016,12,11,02,01,5.30
2016,12,11,02,02,5.40
2016,12,11,02,03,5.40
2016,12,11,02,04,5.40
2016,12,11,02,05,5.40
2016,12,11,02,06,5.30
2016,12,11,02,07,5.30
2016,12,11,02,08,5.30
2016,12,11,02,09,5.30
2016,12,11,02,10,5.30
2016,12,11,02,11,5.40
2016,12,11,02,12,5.50
2016,12,11,02,13,5.50
2016,12,11,02,14,5.50
2016,12,11,02,15,5.50
2016,12,11,02,16,5.50
2016,12,11,02,17,5.50
2016,12,11,02,18,5.50
2016,12,11,02,19,5.50
2016,12,11,02,20,5.50
2016,12,11,02,21,5.50
2016,12,11,02,22,5.50
2016,12,11,02,23,5.60
2016,12,11,02,24,5.60
2016,12,11,02,25,5.60
2016,12,11,02,26,5.60
2016,12,11,02,27,5.60
2016,12,11,02,28,5.60
2016,12,11,02,29,5.60
2016,12,11,02,30,5.50
2016,12,11,02,31,5.50
2016,12,11,02,32,5.50
2016,12,11,02,33,5.50
2016,12,11,02,34,5.60
2016,12,11,02,35,5.60
2016,12,11,02,36,5.60
2016,12,11,02,37,5.60
2016,12,11,02,38,5.60
2016,12,11,02,39,5.70
2016,12,11,02,40,5.70
2016,12,11,02,41,5.70
2016,12,11,02,42,5.70
2016,12,11,02,43,5.70
2016,12,11,02,44,5.70
2016,12,11,02,45,5.70
2016,12,11,02,46,5.70
2016,12,11,02,47,5.60
2016,12,11,02,48,5.60
2016,12,11,02,49,5.60
2016,12,11,02,50,5.60
2016,12,11,02,51,5.60
2016,12,11,02,52,5.50
2016,12,11,02,53,5.50
2016,12,11,02,54,5.50
2016,12,11,02,55,5.50
2016,12,11,02,56,5.50
2016,12,11,02,57,5.50
2016,12,11,02,58,5.60
2016,12,11,02,59,5.60
2016,12,11,03,00,5.60
2016,12,11,03,01,5.70
2016,12,11,03,02,5.70
2016,12,11,03,03,5.70
2016,12,11,03,04,5.70
2016,12,11,03,05,5.70
2016,12,11,03,06,5.70
2016,12,11,03,07,5.60
2016,12,11,03,08,5.60
2016,12,11,03,09,5.50
2016,12,11,03,10,5.50
2016,12,11,03,11,5.50
2016,12,11,03,12,5.50
2016,12,11,03,13,5.50
2016,12,11,03,14,5.50
2016,12,11,03,15,5.50
2016,12,11,03,16,5.50
2016,12,11,03,17,5.50
2016,12,11,03,18,5.50
2016,12,11,03,19,5.60
2016,12,11,03,20,5.60
2016,12,11,03,21,5.60
2016,12,11,03,22,5.60
2016,12,11,03,23,5.50
2016,12,11,03,24,5.50
2016,12,11,03,25,5.60
2016,12,11,03,26,5.60
2016,12,11,03,27,5.60
2016,12,11,03,28,5.60
2016,12,11,03,29,5.60
2016,12,11,03,30,5.60
2016,12,11,03,31,5.60
2016,12,11,03,32,5.60
2016,12,11,03,33,5.60
2016,12,11,03,34,5.60
2016,12,11,03,35,5.60
2016,12,11,03,36,5.60
2016,12,11,03,37,5.60
2016,12,11,03,38,5.50
2016,12,11,03,39,5.50
2016,12,11,03,40,5.50
2016,12,11,03,41,5.50
2016,12,11,03,42,5.50
2016,12,11,03,43,5.40
2016,12,11,03,44,5.40
2016,12,11,03,45,5.40
2016,12,11,03,46,5.40
2016,12,11,03,47,5.40
2016,12,11,03,48,5.40
2016,12,11,03,49,5.40
2016,12,11,03,50,5.30
2016,12,11,03,51,5.30
2016,12,11,03,52,5.30
2016,12,11,03,53,5.30
2016,12,11,03,54,5.30
2016,12,11,03,55,5.30
2016,12,11,03,56,5.30
2016,12,11,03,57,5.20
2016,12,11,03,58,5.20
2016,12,11,03,59,5.20
2016,12,11,04,00,5.20
2016,12,11,04,01,5.20
2016,12,11,04,02,5.20
2016,12,11,04,03,5.20
2016,12,11,04,04,5.20
2016,12,11,04,05,5.10
2016,12,11,04,06,5.10
2016,12,11,04,07,5.10
2016,12,11,04,08,5.10
2016,12,11,04,09,5.20
2016,12,11,04,10,5.20
2016,12,11,04,11,5.10
2016,12,11,04,12,5.10
2016,12,11,04,13,5.10
2016,12,11,04,14,5.10
2016,12,11,04,15,5.10
2016,12,11,04,16,5.10
2016,12,11,04,17,5.10
2016,12,11,04,18,5.10
2016,12,11,04,19,5.00
2016,12,11,04,20,5.00
2016,12,11,04,21,5.00
2016,12,11,04,22,5.00
2016,12,11,04,23,5.00
2016,12,11,04,24,5.00
2016,12,11,04,25,5.00
2016,12,11,04,26,4.90
2016,12,11,04,27,4.90
2016,12,11,04,28,5.00
2016,12,11,04,29,4.90
2016,12,11,04,30,4.90
2016,12,11,04,31,4.80
2016,12,11,04,32,4.80
2016,12,11,04,33,4.80
2016,12,11,04,34,4.80
2016,12,11,04,35,4.70
2016,12,11,04,36,4.70
2016,12,11,04,37,4.70
2016,12,11,04,38,4.80
2016,12,11,04,39,4.80
2016,12,11,04,40,4.80
2016,12,11,04,41,4.80
2016,12,11,04,42,4.80
2016,12,11,04,43,4.80
2016,12,11,04,44,4.70
2016,12,11,04,45,4.70
2016,12,11,04,46,4.70
2016,12,11,04,47,4.70
2016,12,11,04,48,4.70
2016,12,11,04,49,4.70
2016,12,11,04,50,4.60
2016,12,11,04,51,4.60
2016,12,11,04,52,4.60
2016,12,11,04,53,4.60
2016,12,11,04,54,4.60
2016,12,11,04,55,4.60
2016,12,11,04,56,4.60
2016,12,11,04,57,4.70
2016,12,11,04,58,4.70
2016,12,11,04,59,4.70
2016,12,11,05,00,4.80
2016,12,11,05,01,4.80
2016,12,11,05,02,4.80
2016,12,11,05,03,4.80
2016,12,11,05,04,4.80
2016,12,11,05,05,4.80
2016,12,11,05,06,4.80
2016,12,11,05,07,4.80
2016,12,11,05,08,4.90
2016,12,11,05,09,5.00
2016,12,11,05,10,5.10
2016,12,11,05,11,5.10
2016,12,11,05,12,5.10
2016,12,11,05,13,5.10
2016,12,11,05,14,5.10
2016,12,11,05,15,5.10
2016,12,11,05,16,5.10
2016,12,11,05,17,5.20
2016,12,11,05,18,5.20
2016,12,11,05,19,5.20
2016,12,11,05,20,5.20
2016,12,11,05,21,5.20
2016,12,11,05,22,5.20
2016,12,11,05,23,5.20
2016,12,11,05,24,5.20
2016,12,11,05,25,5.20
2016,12,11,05,26,5.20
2016,12,11,05,27,5.10
2016,12,11,05,28,5.10
2016,12,11,05,29,5.10
2016,12,11,05,30,5.10
2016,12,11,05,31,5.10
2016,12,11,05,32,5.00
2016,12,11,05,33,5.00
2016,12,11,05,34,4.90
2016,12,11,05,35,4.90
2016,12,11,05,36,4.80
2016,12,11,05,37,4.80
2016,12,11,05,38,4.80
2016,12,11,05,39,4.70
2016,12,11,05,40,4.70
2016,12,11,05,41,4.70
2016,12,11,05,42,4.60
2016,12,11,05,43,4.60
2016,12,11,05,44,4.60
2016,12,11,05,45,4.60
2016,12,11,05,46,4.60
2016,12,11,05,47,4.60
2016,12,11,05,48,4.60
2016,12,11,05,49,4.50
2016,12,11,05,50,4.50
2016,12,11,05,51,4.50
2016,12,11,05,52,4.50
2016,12,11,05,53,4.40
2016,12,11,05,54,4.40
2016,12,11,05,55,4.30
2016,12,11,05,56,4.30
2016,12,11,05,57,4.20
2016,12,11,05,58,4.20
2016,12,11,05,59,4.20
2016,12,11,06,00,4.20
2016,12,11,06,01,4.20
2016,12,11,06,02,4.20
2016,12,11,06,03,4.20
2016,12,11,06,04,4.20
2016,12,11,06,05,4.10
2016,12,11,06,06,4.10
2016,12,11,06,07,4.10
2016,12,11,06,08,4.10
2016,12,11,06,09,4.00
2016,12,11,06,10,4.00
2016,12,11,06,11,4.00
2016,12,11,06,12,3.90
2016,12,11,06,13,3.90
2016,12,11,06,14,3.90
2016,12,11,06,15,3.90
2016,12,11,06,16,3.90
2016,12,11,06,17,3.80
2016,12,11,06,18,3.80
2016,12,11,06,19,3.70
2016,12,11,06,20,3.70
2016,12,11,06,21,3.60
2016,12,11,06,22,3.60
2016,12,11,06,23,3.50
2016,12,11,06,24,3.50
2016,12,11,06,25,3.40
2016,12,11,06,26,3.40
2016,12,11,06,27,3.30
2016,12,11,06,28,3.30
2016,12,11,06,29,3.30
2016,12,11,06,30,3.20
2016,12,11,06,31,3.20
2016,12,11,06,32,3.10
2016,12,11,06,33,3.10
2016,12,11,06,34,3.10
2016,12,11,06,35,3.10
2016,12,11,06,36,3.00
2016,12,11,06,37,2.90
2016,12,11,06,38,2.90
2016,12,11,06,39,2.90
2016,12,11,06,40,2.80
2016,12,11,06,41,2.80
2016,12,11,06,42,2.80
2016,12,11,06,43,2.80
2016,12,11,06,44,2.70
2016,12,11,06,45,2.70
2016,12,11,06,46,2.70
2016,12,11,06,47,2.60
2016,12,11,06,48,2.60
2016,12,11,06,49,2.60
2016,12,11,06,50,2.60
2016,12,11,06,51,2.50
2016,12,11,06,52,2.50
2016,12,11,06,53,2.50
2016,12,11,06,54,2.50
2016,12,11,06,55,2.40
2016,12,11,06,56,2.40
2016,12,11,06,57,2.40
2016,12,11,06,58,2.40
2016,12,11,06,59,2.40
2016,12,11,07,00,2.30
2016,12,11,07,01,2.30
2016,12,11,07,02,2.30
2016,12,11,07,03,2.30
2016,12,11,07,04,2.20
2016,12,11,07,05,2.20
2016,12,11,07,06,2.20
2016,12,11,07,07,2.20
2016,12,11,07,08,2.20
2016,12,11,07,09,2.20
2016,12,11,07,10,2.10
2016,12,11,07,11,2.10
2016,12,11,07,12,2.10
2016,12,11,07,13,2.10
2016,12,11,07,14,2.10
2016,12,11,07,15,2.00
2016,12,11,07,16,2.00
2016,12,11,07,17,2.00
2016,12,11,07,18,2.00
2016,12,11,07,19,2.00
2016,12,11,07,20,2.00
2016,12,11,07,21,2.00
2016,12,11,07,22,2.00
2016,12,11,07,23,1.90
2016,12,11,07,24,1.90
2016,12,11,07,25,1.90
2016,12,11,07,26,1.90
2016,12,11,07,27,1.90
2016,12,11,07,28,1.90
2016,12,11,07,29,1.90
2016,12,11,07,30,1.90
2016,12,11,07,31,1.90
2016,12,11,07,32,1.90
2016,12,11,07,33,1.80
2016,12,11,07,34,1.80
2016,12,11,07,35,1.80
2016,12,11,07,36,1.80
2016,12,11,07,37,1.80
2016,12,11,07,38,1.80
2016,12,11,07,39,1.80
2016,12,11,07,40,1.80
2016,12,11,07,41,1.80
2016,12,11,07,42,1.80
2016,12,11,07,43,1.80
2016,12,11,07,44,1.80
2016,12,11,07,45,1.80
2016,12,11,07,46,1.80
2016,12,11,07,47,1.80
2016,12,11,07,48,1.80
2016,12,11,07,49,1.80
2016,12,11,07,50,1.80
2016,12,11,07,51,1.80
2016,12,11,07,52,1.80
2016,12,11,07,53,1.80
2016,12,11,07,54,1.80
2016,12,11,07,55,1.80
2016,12,11,07,56,1.80
2016,12,11,07,57,1.80
2016,12,11,07,58,1.80
2016,12,11,07,59,1.80
2016,12,11,08,00,1.80
2016,12,11,08,01,1.80
2016,12,11,08,02,1.80
2016,12,11,08,03,1.80
2016,12,11,08,04,1.80
2016,12,11,08,05,1.80
2016,12,11,08,06,1.80
2016,12,11,08,07,1.80
2016,12,11,08,08,1.80
2016,12,11,08,09,1.80
2016,12,11,08,10,1.80
2016,12,11,08,11,1.80
2016,12,11,08,12,1.80
2016,12,11,08,13,1.80
2016,12,11,08,14,1.80
2016,12,11,08,15,1.80
2016,12,11,08,16,1.80
2016,12,11,08,17,1.80
2016,12,11,08,18,1.80
2016,12,11,08,19,1.80
2016,12,11,08,20,1.80
2016,12,11,08,21,1.80
2016,12,11,08,22,1.80
2016,12,11,08,23,1.80
2016,12,11,08,24,1.80
2016,12,11,08,25,1.80
2016,12,11,08,26,1.80
2016,12,11,08,27,1.80
2016,12,11,08,28,1.80
2016,12,11,08,29,1.80
2016,12,11,08,30,1.80
2016,12,11,08,31,1.80
2016,12,11,08,32,1.80
2016,12,11,08,33,1.80
2016,12,11,08,34,1.80
2016,12,11,08,35,1.80
2016,12,11,08,36,1.80
2016,12,11,08,37,1.80
2016,12,11,08,38,1.80
2016,12,11,08,39,1.80
2016,12,11,08,40,1.90
2016,12,11,08,41,1.90
2016,12,11,08,42,1.90
2016,12,11,08,43,1.90
2016,12,11,08,44,1.90
2016,12,11,08,45,1.90
2016,12,11,08,46,1.90
2016,12,11,08,47,1.90
2016,12,11,08,48,1.90
2016,12,11,08,49,1.90
2016,12,11,08,50,1.90
2016,12,11,08,51,1.90
2016,12,11,08,52,1.90
2016,12,11,08,53,1.90
2016,12,11,08,54,1.90
2016,12,11,08,55,1.90
2016,12,11,08,56,1.90
2016,12,11,08,57,2.00
2016,12,11,08,58,2.00
2016,12,11,08,59,2.00
2016,12,11,09,00,2.00
2016,12,11,09,01,2.00
2016,12,11,09,02,2.10
2016,12,11,09,03,2.10
2016,12,11,09,04,2.10
2016,12,11,09,05,2.10
2016,12,11,09,06,2.10
2016,12,11,09,07,2.10
2016,12,11,09,08,2.10
2016,12,11,09,09,2.20
2016,12,11,09,10,2.20
2016,12,11,09,11,2.20
2016,12,11,09,12,2.20
2016,12,11,09,13,2.20
2016,12,11,09,14,2.30
2016,12,11,09,15,2.30
2016,12,11,09,16,2.30
2016,12,11,09,17,2.30
2016,12,11,09,18,2.30
2016,12,11,09,19,2.30
2016,12,11,09,20,2.30
2016,12,11,09,21,2.30
2016,12,11,09,22,2.30
2016,12,11,09,23,2.30
2016,12,11,09,24,2.30
2016,12,11,09,25,2.30
2016,12,11,09,26,2.30
2016,12,11,09,27,2.30
2016,12,11,09,28,2.30
2016,12,11,09,29,2.30
2016,12,11,09,30,2.30
2016,12,11,09,31,2.30
2016,12,11,09,32,2.40
2016,12,11,09,33,2.40
2016,12,11,09,34,2.40
2016,12,11,09,35,2.40
2016,12,11,09,36,2.40
2016,12,11,09,37,2.50
2016,12,11,09,38,2.50
2016,12,11,09,39,2.50
2016,12,11,09,40,2.50
2016,12,11,09,41,2.60
2016,12,11,09,42,2.60
2016,12,11,09,43,2.60
2016,12,11,09,44,2.60
2016,12,11,09,45,2.60
2016,12,11,09,46,2.70
2016,12,11,09,47,2.70
2016,12,11,09,48,2.70
2016,12,11,09,49,2.70
2016,12,11,09,50,2.70
2016,12,11,09,51,2.80
2016,12,11,09,52,2.80
2016,12,11,09,53,2.80
2016,12,11,09,54,2.80
2016,12,11,09,55,2.80
2016,12,11,09,56,2.80
2016,12,11,09,57,2.80
2016,12,11,09,58,2.80
2016,12,11,09,59,2.80
2016,12,11,10,00,2.80
2016,12,11,10,01,2.80
2016,12,11,10,02,2.80
2016,12,11,10,03,2.80
2016,12,11,10,04,2.80
2016,12,11,10,05,2.80
2016,12,11,10,06,2.90
2016,12,11,10,07,2.90
2016,12,11,10,08,2.90
2016,12,11,10,09,3.00
2016,12,11,10,10,3.00
2016,12,11,10,11,3.00
2016,12,11,10,12,3.10
2016,12,11,10,13,3.10
2016,12,11,10,14,3.10
2016,12,11,10,15,3.20
2016,12,11,10,16,3.20
2016,12,11,10,17,3.30
2016,12,11,10,18,3.30
2016,12,11,10,19,3.40
2016,12,11,10,20,3.40
2016,12,11,10,21,3.50
2016,12,11,10,22,3.50
2016,12,11,10,23,3.60
2016,12,11,10,24,3.70
2016,12,11,10,25,3.80
2016,12,11,10,26,3.80
2016,12,11,10,27,3.90
2016,12,11,10,28,4.00
2016,12,11,10,29,4.00
2016,12,11,10,30,4.10
2016,12,11,10,31,4.10
2016,12,11,10,32,4.20
2016,12,11,10,33,4.20
2016,12,11,10,34,4.30
2016,12,11,10,35,4.40
2016,12,11,10,36,4.40
2016,12,11,10,37,4.50
2016,12,11,10,38,4.50
2016,12,11,10,39,4.50
2016,12,11,10,40,4.60
2016,12,11,10,41,4.70
2016,12,11,10,42,4.80
2016,12,11,10,43,4.90
2016,12,11,10,44,5.00
2016,12,11,10,45,5.10
2016,12,11,10,46,5.20
2016,12,11,10,47,5.20
2016,12,11,10,48,5.20
2016,12,11,10,49,5.30
2016,12,11,10,50,5.40
2016,12,11,10,51,5.50
2016,12,11,10,52,5.50
2016,12,11,10,53,5.50
2016,12,11,10,54,5.50
2016,12,11,10,55,5.50
2016,12,11,10,56,5.60
2016,12,11,10,57,5.60
2016,12,11,10,58,5.70
2016,12,11,10,59,5.80
2016,12,11,11,00,5.80
2016,12,11,11,01,5.80
2016,12,11,11,02,5.80
2016,12,11,11,03,5.80
2016,12,11,11,04,5.80
2016,12,11,11,05,5.80
2016,12,11,11,06,5.80
2016,12,11,11,07,5.80
2016,12,11,11,08,5.80
2016,12,11,11,09,5.80
2016,12,11,11,10,5.80
2016,12,11,11,11,5.80
2016,12,11,11,12,5.90
2016,12,11,11,13,5.90
2016,12,11,11,14,5.90
2016,12,11,11,15,5.90
2016,12,11,11,16,6.00
2016,12,11,11,17,6.00
2016,12,11,11,18,6.00
2016,12,11,11,19,6.10
2016,12,11,11,20,6.10
2016,12,11,11,21,6.10
2016,12,11,11,22,6.20
2016,12,11,11,23,6.20
2016,12,11,11,24,6.20
2016,12,11,11,25,6.20
2016,12,11,11,26,6.20
2016,12,11,11,27,6.20
2016,12,11,11,28,6.20
2016,12,11,11,29,6.20
2016,12,11,11,30,6.10
2016,12,11,11,31,6.10
2016,12,11,11,32,6.10
2016,12,11,11,33,6.10
2016,12,11,11,34,6.20
2016,12,11,11,35,6.20
2016,12,11,11,36,6.20
2016,12,11,11,37,6.20
2016,12,11,11,38,6.10
2016,12,11,11,39,6.10
2016,12,11,11,40,6.10
2016,12,11,11,41,6.10
2016,12,11,11,42,6.10
2016,12,11,11,43,6.00
2016,12,11,11,44,6.00
2016,12,11,11,45,5.90
2016,12,11,11,46,5.90
2016,12,11,11,47,5.90
2016,12,11,11,48,5.80
2016,12,11,11,49,5.80
2016,12,11,11,50,5.80
2016,12,11,11,51,5.80
2016,12,11,11,52,5.70
2016,12,11,11,53,5.70
2016,12,11,11,54,5.70
2016,12,11,11,55,5.70
2016,12,11,11,56,5.70
2016,12,11,11,57,5.70
2016,12,11,11,58,5.70
2016,12,11,11,59,5.60
2016,12,11,12,00,5.60
2016,12,11,12,01,5.60
2016,12,11,12,02,5.60
2016,12,11,12,03,5.60
2016,12,11,12,04,5.60
2016,12,11,12,05,5.60
2016,12,11,12,06,5.60
2016,12,11,12,07,5.60
2016,12,11,12,08,5.60
2016,12,11,12,09,5.60
2016,12,11,12,10,5.60
2016,12,11,12,11,5.50
2016,12,11,12,12,5.50
2016,12,11,12,13,5.50
2016,12,11,12,14,5.50
2016,12,11,12,15,5.50
2016,12,11,12,16,5.50
2016,12,11,12,17,5.50
2016,12,11,12,18,5.50
2016,12,11,12,19,5.50
2016,12,11,12,20,5.40
2016,12,11,12,21,5.40
2016,12,11,12,22,5.30
2016,12,11,12,23,5.30
2016,12,11,12,24,5.30
2016,12,11,12,25,5.20
2016,12,11,12,26,5.20
2016,12,11,12,27,5.20
2016,12,11,12,28,5.20
2016,12,11,12,29,5.20
2016,12,11,12,30,5.20
2016,12,11,12,31,5.20
2016,12,11,12,32,5.20
2016,12,11,12,33,5.20
2016,12,11,12,34,5.10
2016,12,11,12,35,5.20
2016,12,11,12,36,5.20
2016,12,11,12,37,5.20
2016,12,11,12,38,5.20
2016,12,11,12,39,5.20
2016,12,11,12,40,5.20
2016,12,11,12,41,5.20
2016,12,11,12,42,5.30
2016,12,11,12,43,5.30
2016,12,11,12,44,5.30
2016,12,11,12,45,5.40
2016,12,11,12,46,5.40
2016,12,11,12,47,5.40
2016,12,11,12,48,5.40
2016,12,11,12,49,5.40
2016,12,11,12,50,5.50
2016,12,11,12,51,5.50
2016,12,11,12,52,5.60
2016,12,11,12,53,5.70
2016,12,11,12,54,5.70
2016,12,11,12,55,5.70
2016,12,11,12,56,5.70
2016,12,11,12,57,5.70
2016,12,11,12,58,5.70
2016,12,11,12,59,5.70
2016,12,11,13,00,5.80
2016,12,11,13,01,5.80
2016,12,11,13,02,5.80
2016,12,11,13,03,5.80
2016,12,11,13,04,5.80
2016,12,11,13,05,5.80
2016,12,11,13,06,5.80
2016,12,11,13,07,5.80
2016,12,11,13,08,5.80
2016,12,11,13,09,5.80
2016,12,11,13,10,5.90
2016,12,11,13,11,5.90
2016,12,11,13,12,6.00
2016,12,11,13,13,6.00
2016,12,11,13,14,6.00
2016,12,11,13,15,5.90
2016,12,11,13,16,5.90
2016,12,11,13,17,5.90
2016,12,11,13,18,5.90
2016,12,11,13,19,5.80
2016,12,11,13,20,5.80
2016,12,11,13,21,5.80
2016,12,11,13,22,5.80
2016,12,11,13,23,5.70
2016,12,11,13,24,5.70
2016,12,11,13,25,5.70
2016,12,11,13,26,5.70
2016,12,11,13,27,5.80
2016,12,11,13,28,5.80
2016,12,11,13,29,5.80
2016,12,11,13,30,5.80
2016,12,11,13,31,5.80
2016,12,11,13,32,5.70
2016,12,11,13,33,5.60
2016,12,11,13,34,5.60
2016,12,11,13,35,5.50
2016,12,11,13,36,5.50
2016,12,11,13,37,5.50
2016,12,11,13,38,5.40
2016,12,11,13,39,5.40
2016,12,11,13,40,5.40
2016,12,11,13,41,5.40
2016,12,11,13,42,5.30
2016,12,11,13,43,5.30
2016,12,11,13,44,5.30
2016,12,11,13,45,5.30
2016,12,11,13,46,5.30
2016,12,11,13,47,5.30
2016,12,11,13,48,5.30
2016,12,11,13,49,5.30
2016,12,11,13,50,5.40
2016,12,11,13,51,5.40
2016,12,11,13,52,5.40
2016,12,11,13,53,5.40
2016,12,11,13,54,5.40
2016,12,11,13,55,5.40
2016,12,11,13,56,5.40
2016,12,11,13,57,5.40
2016,12,11,13,58,5.40
2016,12,11,13,59,5.40
2016,12,11,14,00,5.40
2016,12,11,14,01,5.40
2016,12,11,14,02,5.40
2016,12,11,14,03,5.40
2016,12,11,14,04,5.40
2016,12,11,14,05,5.40
2016,12,11,14,06,5.30
2016,12,11,14,07,5.30
2016,12,11,14,08,5.30
2016,12,11,14,09,5.30
2016,12,11,14,10,5.30
2016,12,11,14,11,5.30
2016,12,11,14,12,5.30
2016,12,11,14,13,5.30
2016,12,11,14,14,5.30
2016,12,11,14,15,5.30
2016,12,11,14,16,5.30
2016,12,11,14,17,5.30
2016,12,11,14,18,5.30
2016,12,11,14,19,5.30
2016,12,11,14,20,5.30
2016,12,11,14,21,5.30
2016,12,11,14,22,5.30
2016,12,11,14,23,5.20
2016,12,11,14,24,5.20
2016,12,11,14,25,5.20
2016,12,11,14,26,5.20
2016,12,11,14,27,5.20
2016,12,11,14,28,5.20
2016,12,11,14,29,5.20
2016,12,11,14,30,5.20
2016,12,11,14,31,5.20
2016,12,11,14,32,5.20
2016,12,11,14,33,5.20
2016,12,11,14,34,5.20
2016,12,11,14,35,5.20
2016,12,11,14,36,5.20
2016,12,11,14,37,5.20
2016,12,11,14,38,5.20
2016,12,11,14,39,5.20
2016,12,11,14,40,5.20
2016,12,11,14,41,5.20
2016,12,11,14,42,5.20
2016,12,11,14,43,5.20
2016,12,11,14,44,5.20
2016,12,11,14,45,5.20
2016,12,11,14,46,5.20
2016,12,11,14,47,5.20
2016,12,11,14,48,5.20
2016,12,11,14,49,5.20
2016,12,11,14,50,5.20
2016,12,11,14,51,5.20
2016,12,11,14,52,5.20
2016,12,11,14,53,5.20
2016,12,11,14,54,5.20
2016,12,11,14,55,5.20
2016,12,11,14,56,5.20
2016,12,11,14,57,5.20
2016,12,11,14,58,5.20
2016,12,11,14,59,5.20
2016,12,11,15,00,5.10
2016,12,11,15,01,5.10
2016,12,11,15,02,5.10
2016,12,11,15,03,5.10
2016,12,11,15,04,5.20
2016,12,11,15,05,5.10
2016,12,11,15,06,5.10
2016,12,11,15,07,5.10
2016,12,11,15,08,5.10
2016,12,11,15,09,5.10
2016,12,11,15,10,5.10
2016,12,11,15,11,5.10
2016,12,11,15,12,5.10
2016,12,11,15,13,5.10
2016,12,11,15,14,5.10
2016,12,11,15,15,5.10
2016,12,11,15,16,5.10
2016,12,11,15,17,5.10
2016,12,11,15,18,5.10
2016,12,11,15,19,5.10
2016,12,11,15,20,5.10
2016,12,11,15,21,5.10
2016,12,11,15,22,5.10
2016,12,11,15,23,5.10
2016,12,11,15,24,5.10
2016,12,11,15,25,5.10
2016,12,11,15,26,5.10
2016,12,11,15,27,5.10
2016,12,11,15,28,5.10
2016,12,11,15,29,5.20
2016,12,11,15,30,5.20
2016,12,11,15,31,5.20
2016,12,11,15,32,5.20
2016,12,11,15,33,5.20
2016,12,11,15,34,5.20
2016,12,11,15,35,5.20
2016,12,11,15,36,5.20
2016,12,11,15,37,5.20
2016,12,11,15,38,5.20
2016,12,11,15,39,5.20
2016,12,11,15,40,5.20
2016,12,11,15,41,5.20
2016,12,11,15,42,5.20
2016,12,11,15,43,5.20
2016,12,11,15,44,5.20
2016,12,11,15,45,5.10
2016,12,11,15,46,5.10
2016,12,11,15,47,5.10
2016,12,11,15,48,5.10
2016,12,11,15,49,5.10
2016,12,11,15,50,5.00
2016,12,11,15,51,5.00
2016,12,11,15,52,5.00
2016,12,11,15,53,5.00
2016,12,11,15,54,5.00
2016,12,11,15,55,5.00
2016,12,11,15,56,5.00
2016,12,11,15,57,5.00
2016,12,11,15,58,5.00
2016,12,11,15,59,5.00
2016,12,11,16,00,5.00
2016,12,11,16,01,5.00
2016,12,11,16,02,5.00
2016,12,11,16,03,5.00
2016,12,11,16,04,5.00
2016,12,11,16,05,5.00
2016,12,11,16,06,4.90
2016,12,11,16,07,4.90
2016,12,11,16,08,4.90
2016,12,11,16,09,4.90
2016,12,11,16,10,4.80
2016,12,11,16,11,4.80
2016,12,11,16,12,4.80
2016,12,11,16,13,4.70
2016,12,11,16,14,4.70
2016,12,11,16,15,4.70
2016,12,11,16,16,4.60
2016,12,11,16,17,4.60
2016,12,11,16,18,4.60
2016,12,11,16,19,4.50
2016,12,11,16,20,4.50
2016,12,11,16,21,4.50
2016,12,11,16,22,4.50
2016,12,11,16,23,4.50
2016,12,11,16,24,4.50
2016,12,11,16,25,4.50
2016,12,11,16,26,4.40
2016,12,11,16,27,4.40
2016,12,11,16,28,4.30
2016,12,11,16,29,4.30
2016,12,11,16,30,4.20
2016,12,11,16,31,4.20
2016,12,11,16,32,4.10
2016,12,11,16,33,4.10
2016,12,11,16,34,4.00
2016,12,11,16,35,4.00
2016,12,11,16,36,3.90
2016,12,11,16,37,3.90
2016,12,11,16,38,3.90
2016,12,11,16,39,3.80
2016,12,11,16,40,3.80
2016,12,11,16,41,3.80
2016,12,11,16,42,3.80
2016,12,11,16,43,3.80
2016,12,11,16,44,3.70
2016,12,11,16,45,3.70
2016,12,11,16,46,3.70
2016,12,11,16,47,3.70
2016,12,11,16,48,3.70
2016,12,11,16,49,3.70
2016,12,11,16,50,3.60
2016,12,11,16,51,3.60
2016,12,11,16,52,3.60
2016,12,11,16,53,3.60
2016,12,11,16,54,3.60
2016,12,11,16,55,3.50
2016,12,11,16,56,3.50
2016,12,11,16,57,3.50
2016,12,11,16,58,3.50
2016,12,11,16,59,3.50
2016,12,11,17,00,3.50
2016,12,11,17,01,3.40
2016,12,11,17,02,3.40
2016,12,11,17,03,3.50
2016,12,11,17,04,3.50
2016,12,11,17,05,3.50
2016,12,11,17,06,3.50
2016,12,11,17,07,3.40
2016,12,11,17,08,3.40
2016,12,11,17,09,3.40
2016,12,11,17,10,3.40
2016,12,11,17,11,3.30
2016,12,11,17,12,3.20
2016,12,11,17,13,3.20
2016,12,11,17,14,3.10
2016,12,11,17,15,3.10
2016,12,11,17,16,3.10
2016,12,11,17,17,3.00
2016,12,11,17,18,3.00
2016,12,11,17,19,3.00
2016,12,11,17,20,2.90
2016,12,11,17,21,2.90
2016,12,11,17,22,2.90
2016,12,11,17,23,2.90
2016,12,11,17,24,2.90
2016,12,11,17,25,2.90
2016,12,11,17,26,2.90
2016,12,11,17,27,3.00
2016,12,11,17,28,2.90
2016,12,11,17,29,2.90
2016,12,11,17,30,2.90
2016,12,11,17,31,2.90
2016,12,11,17,32,2.90
2016,12,11,17,33,2.90
2016,12,11,17,34,2.90
2016,12,11,17,35,2.90
2016,12,11,17,36,2.90
2016,12,11,17,37,2.90
2016,12,11,17,38,2.90
2016,12,11,17,39,2.90
2016,12,11,17,40,2.80
2016,12,11,17,41,2.80
2016,12,11,17,42,2.70
2016,12,11,17,43,2.70
2016,12,11,17,44,2.70
2016,12,11,17,45,2.60
2016,12,11,17,46,2.60
2016,12,11,17,47,2.60
2016,12,11,17,48,2.60
2016,12,11,17,49,2.60
2016,12,11,17,50,2.60
2016,12,11,17,51,2.60
2016,12,11,17,52,2.60
2016,12,11,17,53,2.50
2016,12,11,17,54,2.50
2016,12,11,17,55,2.50
2016,12,11,17,56,2.40
2016,12,11,17,57,2.50
2016,12,11,17,58,2.50
2016,12,11,17,59,2.40
2016,12,11,18,00,2.40
2016,12,11,18,01,2.40
2016,12,11,18,02,2.40
2016,12,11,18,03,2.40
2016,12,11,18,04,2.40
2016,12,11,18,05,2.40
2016,12,11,18,06,2.30